STARLINK-1119

decayed
NORAD ID: 44928 Int'l Des: 2020-001 Owner: SPXS Country: US Constellation: starlink
LEOCIRCULAR
Gruppe

Über STARLINK-1119

Beschreibung wird geladen...

Höhenverlauf

Altitude vs Time

uPlot chart will show altitude changes over time

Zweizeiliger Elementsatz

1 44928U 20001Q 24136.08916718 .17779497 12124-4 38190-2 0 9994
2 44928 53.0443 3.6776 0007991 287.9366 247.4073 16.29846001240969
Epoch: 15. Mai 2024 • Age: 11728 hours

Aktueller Status

Position data unavailable
Startdatum 7. Jan. 2020
Alter 5.6 years
Verglühungsdatum 15. Mai 2024
Typ internet

Technische Details

Klassifizierung Payload
Masse 260.00 kg
Trockenmasse 248.00 kg
Gesamtmasse 260.00 kg
Länge 0.20 m
Durchmesser 2.80 m
Spannweite 9.00 m
Form Box + pan
Hersteller SPXS
Bus-Typ Starlink
Phasenstatus Unknown Transfer Status
Besitzer/Staat SPXS/US

Große Konstellationen

Loading constellations...